Weather History for Shepherd Bay, NU

Change the Weather History Date:

Monday, February 27, 2012

  Actual Average Record
Temperature  
Mean Temperature -28 °F -  
Max Temperature -22 °F - - ()
Min Temperature -34 °F - - ()
Degree Days  
Heating Degree Days 93    
Moisture  
Dew Point -    
Average Humidity    
Maximum Humidity    
Minimum Humidity    
Precipitation  
Precipitation 0.00 in - - ()
Sea Level Pressure  
Sea Level Pressure 30.16 in    
Wind  
Wind Speed 12 mph ()    
Max Wind Speed 18 mph    
Max Gust Speed -    
Visibility 2.0 miles    
Events      
T = Trace of Precipitation, MM = Missing Value Source: Averaged Metar Reports

Daily Weather History Graph

Daily Weather History Graph

Search for Another Location

Airport:

Trip Planner

Search our weather history database for the weather conditions in past years. The results will help you decide how hot, cold, wet, or windy it might be!

Date:

Astronomy

Feb. 27, 2012 Rise Set
Actual Time 7:46 AM CST 5:08 PM CST
Civil Twilight 6:47 AM CST 6:07 PM CST
Nautical Twilight 5:40 AM CST 7:14 PM CST
Astronomical Twilight 4:31 AM CST 8:24 PM CST
Moon 6:43 AM CST (2/27) 1:30 AM CST (2/27)
Length of Visible Light 11h 20m
Length of Day
9h 21m
Waxing Crescent, 29% of the Moon is Illuminated
Feb 27
Waxing Crescent
Feb 29
First Quarter
Mar 8
Full
Mar 14
Last Quarter
Mar 22
New

Hourly Weather History & Observations

Time (CST) Temp. Windchill Dew Point Humidity Pressure Visibility Wind Dir Wind Speed Gust Speed Precip Events Conditions
12:00 AM -34 °F - - % 30.29 in 3 mi SSW 11.5 mph - -   Overcast
12:00 AM -32.8 °F -58.2 °F - N/A% 30.29 in 3.0 mi SSW 11.5 mph - N/A   Overcast
12:41 AM -32.8 °F -57.0 °F - N/A% 30.25 in 4.0 mi SSW 10.4 mph - N/A   Scattered Clouds
12:55 AM -32.8 °F -59.3 °F - N/A% 30.24 in 4.0 mi SSW 12.7 mph - N/A   Mostly Cloudy
12:59 AM -32.8 °F -59.3 °F - N/A% 30.24 in 4.0 mi SSW 12.7 mph - N/A   Mostly Cloudy
1:00 AM -32.8 °F -58.2 °F - N/A% 30.28 in 4.0 mi SSW 11.5 mph - N/A   Mostly Cloudy
1:22 AM -32.8 °F -59.3 °F - N/A% 30.24 in 3.0 mi SSW 12.7 mph - N/A   Overcast
1:59 AM -31.0 °F -58.1 °F - N/A% 30.24 in 2.5 mi SSW 13.8 mph - N/A   Overcast
2:00 AM -31.0 °F -58.1 °F - N/A% 30.27 in 2.5 mi SSW 13.8 mph - N/A   Overcast
2:32 AM -31.0 °F -56.0 °F - N/A% 30.23 in 2.5 mi SSW 11.5 mph - N/A   Overcast
2:54 AM -31.0 °F -57.1 °F - N/A% 30.23 in 2.5 mi SSW 12.7 mph - N/A   Mostly Cloudy
2:56 AM -31.0 °F -58.1 °F - N/A% 30.22 in 2.5 mi SSW 13.8 mph - N/A   Overcast
2:58 AM -31.0 °F -59.1 °F - N/A% 30.22 in 2.4 mi SSW 15.0 mph - N/A   Overcast
3:00 AM -32 °F - - % 30.26 in 2 mi SSW 13.8 mph - -   Overcast
3:00 AM -31.0 °F -59.1 °F - N/A% 30.26 in 2.4 mi SSW 15.0 mph - N/A   Overcast
3:05 AM -31.0 °F -57.1 °F - N/A% 30.22 in 2.5 mi SSW 12.7 mph - N/A   Overcast
3:10 AM -32.8 °F -59.3 °F - N/A% 30.22 in 2.5 mi SSW 12.7 mph - N/A   Overcast
3:35 AM -32.8 °F -59.3 °F - N/A% 30.23 in 2.0 mi SSW 12.7 mph - N/A   Overcast
3:40 AM -32.8 °F -59.3 °F - N/A% 30.23 in 1.8 mi SSW 12.7 mph - N/A   Overcast
4:00 AM -32.8 °F -59.3 °F - N/A% 30.27 in 2.1 mi SSW 12.7 mph - N/A   Overcast
4:41 AM -32.8 °F -60.4 °F - N/A% 30.22 in 2.8 mi SSW 13.8 mph - N/A   Overcast
5:00 AM -32.8 °F -60.4 °F - N/A% 30.25 in 2.6 mi SSW 13.8 mph - N/A   Overcast
5:46 AM -32.8 °F -61.4 °F - N/A% 30.21 in 1.4 mi SSW 15.0 mph - N/A   Overcast
5:47 AM -32.8 °F -61.4 °F - N/A% 30.21 in 1.2 mi SSW 15.0 mph - N/A   Overcast
6:00 AM -33 °F - - % 30.24 in 1 mi SSW 13.8 mph - -   Overcast
6:12 AM -32.8 °F -60.4 °F - N/A% 30.20 in 1.4 mi SSW 13.8 mph - N/A   Overcast
6:15 AM -32.8 °F -59.3 °F - N/A% 30.20 in 1.8 mi SSW 12.7 mph - N/A   Mostly Cloudy
6:27 AM -32.8 °F -59.3 °F - N/A% 30.20 in 1.8 mi SSW 12.7 mph - N/A   Scattered Clouds
6:28 AM -32.8 °F -59.3 °F - N/A% 30.20 in 1.8 mi SSW 12.7 mph - N/A   Mostly Cloudy
6:32 AM -32.8 °F -58.2 °F - N/A% 30.20 in 1.8 mi SSW 11.5 mph - N/A   Mostly Cloudy
7:00 AM -32.8 °F -58.2 °F - N/A% 30.23 in 2.5 mi South 11.5 mph - N/A   Overcast
7:33 AM -34.6 °F -60.5 °F - N/A% 30.18 in 1.8 mi South 11.5 mph - N/A   Overcast
8:00 AM -31.0 °F -59.1 °F - N/A% 30.21 in 1.8 mi South 15.0 mph - N/A   Overcast
8:06 AM -31.0 °F -58.1 °F - N/A% 30.18 in 1.8 mi South 13.8 mph - N/A   Overcast
8:14 AM -31.0 °F -59.1 °F - N/A% 30.18 in 1.5 mi South 15.0 mph - N/A   Overcast
8:16 AM -31.0 °F -59.1 °F - N/A% 30.18 in 1.4 mi SSW 15.0 mph - N/A   Overcast
8:19 AM -31.0 °F -59.1 °F - N/A% 30.18 in 1.1 mi SSW 15.0 mph - N/A   Overcast
8:22 AM -31.0 °F -59.1 °F - N/A% 30.18 in 1.1 mi SSW 15.0 mph - N/A   Overcast
8:39 AM -31.0 °F -57.1 °F - N/A% 30.17 in 2.5 mi South 12.7 mph - N/A   Mostly Cloudy
8:45 AM -32.8 °F -59.3 °F - N/A% 30.17 in 2.8 mi South 12.7 mph - N/A   Mostly Cloudy
8:52 AM -32.8 °F -59.3 °F - N/A% 30.17 in 2.4 mi South 12.7 mph - N/A   Mostly Cloudy
9:00 AM -33 °F - - % 30.20 in 2 mi South 11.5 mph - -  
9:00 AM -32.8 °F -57.0 °F - N/A% 30.20 in 2.4 mi South 10.4 mph - N/A   Mostly Cloudy
9:07 AM -32.8 °F -58.2 °F - N/A% 30.16 in 2.5 mi South 11.5 mph - N/A   Partly Cloudy
9:20 AM -34.6 °F -59.2 °F - N/A% 30.16 in 4.0 mi South 10.4 mph - N/A   Clear
10:00 AM -34.6 °F -60.5 °F - N/A% 30.18 in 7.0 mi South 11.5 mph - N/A   Clear
10:46 AM -34.6 °F -57.8 °F - N/A% 30.14 in 3.0 mi SSE 9.2 mph - N/A   Clear
11:00 AM -34.6 °F -57.8 °F - N/A% 30.17 in 2.4 mi SSE 9.2 mph - N/A   Clear
11:14 AM -34.6 °F -59.2 °F - N/A% 30.13 in 2.2 mi SSE 10.4 mph - N/A   Clear
11:22 AM -32.8 °F -58.2 °F - N/A% 30.13 in 2.4 mi SSE 11.5 mph - N/A   Clear
11:38 AM -32.8 °F -57.0 °F - N/A% 30.12 in 2.6 mi SSE 10.4 mph - N/A   Clear
11:51 AM -31.0 °F -57.1 °F - N/A% 30.12 in 2.8 mi SSE 12.7 mph - N/A   Clear
12:00 PM -32 °F - - % 30.15 in 3 mi SSE 11.5 mph - -  
12:00 PM -31.0 °F -56.0 °F - N/A% 30.15 in 2.5 mi SSE 11.5 mph - N/A   Clear
12:01 PM -31.0 °F -56.0 °F - N/A% 30.12 in 2.5 mi SSE 11.5 mph - N/A   Clear
12:34 PM -29.2 °F -53.7 °F - N/A% 30.11 in 1.4 mi South 11.5 mph - N/A   Clear
12:59 PM -29.2 °F -53.7 °F - N/A% 30.11 in 1.5 mi South 11.5 mph - N/A   Clear
1:00 PM -29.2 °F -53.7 °F - N/A% 30.14 in 1.5 mi South 11.5 mph - N/A   Clear
1:14 PM -29.2 °F -53.7 °F - N/A% 30.11 in 1.4 mi South 11.5 mph - N/A   Clear
2:00 PM -27.4 °F -50.3 °F - N/A% 30.14 in 1.2 mi South 10.4 mph - N/A   Clear
3:00 PM -27 °F - - % 30.13 in 1 mi South 11.5 mph - -  
3:00 PM -27.4 °F -51.4 °F - N/A% 30.13 in 1.0 mi South 11.5 mph - N/A   Clear
4:00 PM -27.4 °F -47.6 °F - N/A% 30.12 in 1.1 mi South 8.1 mph - N/A   Clear
5:00 PM -23.8 °F -48.0 °F - N/A% 30.11 in 1.0 mi South 12.7 mph - N/A   Clear
5:38 PM -23.8 °F -50.7 °F - N/A% 30.07 in 1.5 mi South 16.1 mph - N/A   Clear
5:55 PM -23.8 °F -48.9 °F - N/A% 30.07 in 1.4 mi South 13.8 mph - N/A   Clear
6:00 PM -23 °F - - % 30.10 in 1 mi South 15.0 mph - -  
6:00 PM -23.8 °F -49.8 °F - N/A% 30.10 in 1.2 mi South 15.0 mph - N/A   Clear
6:33 PM -23.8 °F -50.7 °F - N/A% 30.06 in 1.5 mi South 16.1 mph - N/A   Clear
7:00 PM -22.0 °F -47.5 °F - N/A% 30.08 in 1.6 mi SSW 15.0 mph - N/A   Clear
7:20 PM -22.0 °F -47.5 °F - N/A% 30.05 in 1.4 mi SSW 15.0 mph - N/A   Clear
8:00 PM -22.0 °F -46.6 °F - N/A% 30.07 in 1.1 mi SSW 13.8 mph - N/A   Clear
8:41 PM -22.0 °F -45.7 °F - N/A% 30.04 in 1.0 mi SSW 12.7 mph - N/A   Overcast
8:55 PM -22.0 °F -47.5 °F - N/A% 30.04 in 1.0 mi SSW 15.0 mph - N/A   Overcast
8:58 PM -22.0 °F -46.6 °F - N/A% 30.04 in 1.0 mi SSW 13.8 mph - N/A   Overcast
9:00 PM -22 °F - - % 30.07 in 1 mi SSW 13.8 mph - -  
9:00 PM -22.0 °F -45.7 °F - N/A% 30.07 in 1.0 mi SSW 12.7 mph - N/A   Clear
9:25 PM -22.0 °F -49.1 °F - N/A% 30.03 in 0.6 mi SSW 17.3 mph - N/A   Clear
9:43 PM -22.0 °F -47.5 °F - N/A% 30.03 in 0.8 mi SSW 15.0 mph - N/A   Overcast
10:00 PM -22.0 °F -49.1 °F - N/A% 30.06 in 0.8 mi SSW 17.3 mph - N/A   Clear
10:09 PM -22.0 °F -49.1 °F - N/A% 30.02 in 0.6 mi SSW 17.3 mph - N/A   Clear
10:47 PM -22.0 °F -49.9 °F - N/A% 30.02 in 1.0 mi SSW 18.4 mph - N/A   Clear
11:00 PM -22.0 °F -47.5 °F - N/A% 30.05 in 0.8 mi SSW 15.0 mph - N/A   Clear
11:15 PM -22.0 °F -48.4 °F - N/A% 30.01 in 0.6 mi SSW 16.1 mph - N/A   Clear